Bullhead City, AZ

1:42 PM MST on December 17, 2017 (GMT -0700)
Laughlin-Bullhead International

Weather History for KIFP - December, 2013

Change the Weather History Date:

Monday, December 9, 2013

  Actual Average Record
Temperature  
Mean Temperature 40 °F -  
Max Temperature 44 °F 63 °F 73 °F (2014)
Min Temperature 35 °F 46 °F 35 °F (2013)
Degree Days  
Heating Degree Days 26    
Moisture  
Dew Point 6 °F    
Average Humidity 25    
Maximum Humidity 33    
Minimum Humidity 18    
Precipitation  
Precipitation 0.00 in - - ()
Sea Level Pressure  
Sea Level Pressure 30.41 in    
Wind  
Wind Speed 20 mph (NNE)    
Max Wind Speed 34 mph    
Max Gust Speed 43 mph    
Visibility 10 miles    
Events      
Averages and records for this station are not official NWS values.
T = Trace of Precipitation, MM = Missing Value Source: NWS Daily Summary

Daily Weather History Graph

Daily Weather History Graph

Search for Another Location

Airport or City:

Trip Planner

Search our weather history database for the weather conditions in past years. The results will help you decide how hot, cold, wet, or windy it might be!

Date:

Astronomy

Dec. 09, 2013 Rise Set
Actual Time 7:35 AM MST 5:26 PM MST
Civil Twilight 7:07 AM MST 5:54 PM MST
Nautical Twilight 6:35 AM MST 6:25 PM MST
Astronomical Twilight 6:04 AM MST 6:56 PM MST
Moon 12:43 PM MST (12/9) 12:08 AM MST (12/9)
Length of Visible Light 10h 47m
Length of Day
9h 51m
First Quarter, 52% of the Moon is Illuminated
Dec 9
First Quarter
Dec 17
Full
Dec 25
Last Quarter
Jan 1
New
Jan 7
First Quarter

Hourly Weather History & Observations

Time (MST) Temp. Windchill Dew Point Humidity Pressure Visibility Wind Dir Wind Speed Gust Speed Precip Events Conditions
12:15 AM 39.2 °F 31.2 °F 10.4 °F 31% 30.26 in 10.0 mi NE 13.8 mph - N/A   Clear
12:35 AM 39.2 °F 29.8 °F 10.4 °F 31% 30.25 in 10.0 mi NNE 18.4 mph - N/A   Clear
12:55 AM 39.2 °F 30.2 °F 10.4 °F 31% 30.26 in 10.0 mi NNE 17.3 mph - N/A   Clear
1:15 AM 39.2 °F 30.8 °F 10.4 °F 31% 30.27 in 10.0 mi NNE 15.0 mph - N/A   Clear
1:35 AM 39.2 °F 30.5 °F 8.6 °F 28% 30.27 in 10.0 mi NNE 16.1 mph - N/A   Clear
1:55 AM 39.2 °F 31.2 °F 10.4 °F 31% 30.27 in 10.0 mi NE 13.8 mph - N/A   Clear
2:15 AM 37.4 °F 28.9 °F 10.4 °F 33% 30.28 in 10.0 mi NNE 13.8 mph - N/A   Clear
2:35 AM 37.4 °F 28.9 °F 10.4 °F 33% 30.28 in 10.0 mi NNE 13.8 mph - N/A   Clear
2:55 AM 37.4 °F 28.5 °F 10.4 °F 33% 30.29 in 10.0 mi NE 15.0 mph 18.4 mph N/A   Clear
3:15 AM 37.4 °F 29.3 °F 8.6 °F 30% 30.30 in 10.0 mi NE 12.7 mph - N/A   Clear
3:35 AM 37.4 °F 28.5 °F 8.6 °F 30% 30.30 in 10.0 mi NNE 15.0 mph - N/A   Clear
3:55 AM 37.4 °F 27.8 °F 8.6 °F 30% 30.30 in 10.0 mi NNE 17.3 mph - N/A   Clear
4:15 AM 37.4 °F 29.3 °F 6.8 °F 28% 30.31 in 10.0 mi NE 12.7 mph - N/A   Clear
4:35 AM 37.4 °F 26.9 °F 8.6 °F 30% 30.30 in 10.0 mi NNE 20.7 mph 26.5 mph N/A   Clear
4:55 AM 37.4 °F 27.5 °F 10.4 °F 33% 30.31 in 10.0 mi NNE 18.4 mph - N/A   Clear
5:15 AM 37.4 °F 28.2 °F 8.6 °F 30% 30.31 in 10.0 mi NE 16.1 mph - N/A   Clear
5:35 AM 37.4 °F 27.5 °F 8.6 °F 30% 30.32 in 10.0 mi NNE 18.4 mph - N/A   Clear
5:55 AM 37.4 °F 28.2 °F 8.6 °F 30% 30.33 in 10.0 mi NNE 16.1 mph - N/A   Clear
6:15 AM 37.4 °F 28.5 °F 8.6 °F 30% 30.35 in 10.0 mi NNE 15.0 mph - N/A   Clear
6:35 AM 37.4 °F 28.9 °F 8.6 °F 30% 30.36 in 10.0 mi NE 13.8 mph - N/A   Clear
6:55 AM 35.6 °F 27.1 °F 8.6 °F 33% 30.37 in 10.0 mi NNE 12.7 mph - N/A   Clear
7:15 AM 37.4 °F 28.2 °F 10.4 °F 33% 30.38 in 10.0 mi NNE 16.1 mph 24.2 mph N/A   Clear
7:35 AM 37.4 °F 29.3 °F 5.0 °F 26% 30.39 in 10.0 mi NE 12.7 mph 20.7 mph N/A   Clear
7:55 AM 37.4 °F 27.8 °F 1.4 °F 22% 30.40 in 10.0 mi North 17.3 mph - N/A   Clear
8:15 AM 37.4 °F 28.5 °F 1.4 °F 22% 30.42 in 10.0 mi NNE 15.0 mph 21.9 mph N/A   Clear
8:35 AM 37.4 °F 27.2 °F 1.4 °F 22% 30.43 in 10.0 mi NNE 19.6 mph 27.6 mph N/A   Clear
8:55 AM 39.2 °F 27.8 °F 1.4 °F 21% 30.43 in 10.0 mi North 27.6 mph 35.7 mph N/A   Clear
9:15 AM 39.2 °F 27.6 °F 3.2 °F 22% 30.44 in 10.0 mi North 28.8 mph 33.4 mph N/A   Clear
9:35 AM 39.2 °F 28.0 °F 5.0 °F 24% 30.46 in 10.0 mi North 26.5 mph 34.5 mph N/A   Clear
9:55 AM 39.2 °F 27.4 °F 6.8 °F 26% 30.47 in 10.0 mi North 29.9 mph 36.8 mph N/A   Clear
10:15 AM 39.2 °F 27.2 °F 6.8 °F 26% 30.48 in 10.0 mi North 31.1 mph 36.8 mph N/A   Clear
10:35 AM 41.0 °F 29.8 °F 5.0 °F 23% 30.49 in 10.0 mi North 29.9 mph 38.0 mph N/A   Clear
10:55 AM 41.0 °F 30.2 °F 6.8 °F 24% 30.49 in 10.0 mi North 27.6 mph 36.8 mph N/A   Clear
11:15 AM 41.0 °F 29.8 °F 6.8 °F 24% 30.50 in 10.0 mi North 29.9 mph 35.7 mph N/A   Clear
11:35 AM 41.0 °F 30.0 °F 5.0 °F 23% 30.49 in 10.0 mi North 28.8 mph 41.4 mph N/A   Clear
11:55 AM 42.8 °F 32.3 °F 5.0 °F 21% 30.49 in 10.0 mi North 29.9 mph 40.3 mph N/A   Clear
12:15 PM 42.8 °F 32.7 °F 3.2 °F 19% 30.49 in 10.0 mi North 27.6 mph 38.0 mph N/A   Clear
12:35 PM 42.8 °F 31.9 °F 3.2 °F 19% 30.48 in 10.0 mi North 32.2 mph 38.0 mph N/A   Clear
12:55 PM 44.6 °F 35.3 °F 3.2 °F 18% 30.47 in 10.0 mi North 26.5 mph 38.0 mph N/A   Clear
1:15 PM 44.6 °F 34.7 °F 5.0 °F 20% 30.45 in 10.0 mi North 29.9 mph 36.8 mph N/A   Clear
1:35 PM 44.6 °F 34.7 °F 3.2 °F 18% 30.45 in 10.0 mi North 29.9 mph 39.1 mph N/A   Clear
1:55 PM 44.6 °F 35.1 °F 5.0 °F 20% 30.44 in 10.0 mi North 27.6 mph 42.6 mph N/A   Clear
2:15 PM 44.6 °F 34.2 °F 5.0 °F 20% 30.43 in 10.0 mi North 33.4 mph 41.4 mph N/A   Clear
2:35 PM 44.6 °F 34.1 °F 5.0 °F 20% 30.43 in 10.0 mi North 34.5 mph 39.1 mph N/A   Clear
2:55 PM 44.6 °F 34.9 °F 6.8 °F 21% 30.43 in 10.0 mi North 28.8 mph 39.1 mph N/A   Clear
3:15 PM 44.6 °F 35.1 °F 5.0 °F 20% 30.43 in 10.0 mi North 27.6 mph 39.1 mph N/A   Clear
3:35 PM 44.6 °F 35.3 °F 5.0 °F 20% 30.44 in 10.0 mi North 26.5 mph 38.0 mph N/A   Clear
3:55 PM 44.6 °F 35.1 °F 5.0 °F 20% 30.44 in 10.0 mi North 27.6 mph 32.2 mph N/A   Clear
4:15 PM 44.6 °F 34.7 °F 5.0 °F 20% 30.43 in 10.0 mi North 29.9 mph 38.0 mph N/A   Clear
4:35 PM 44.6 °F 35.7 °F 5.0 °F 20% 30.44 in 10.0 mi North 24.2 mph 35.7 mph N/A   Clear
4:55 PM 44.6 °F 35.5 °F 5.0 °F 20% 30.46 in 10.0 mi North 25.3 mph 32.2 mph N/A   Clear
5:15 PM 44.6 °F 34.9 °F 6.8 °F 21% 30.45 in 10.0 mi North 28.8 mph 33.4 mph N/A   Clear
5:35 PM 42.8 °F 33.3 °F 1.4 °F 18% 30.46 in 10.0 mi North 24.2 mph 32.2 mph N/A   Clear
5:55 PM 42.8 °F 32.7 °F 1.4 °F 18% 30.44 in 10.0 mi North 27.6 mph 36.8 mph N/A   Clear
6:15 PM 42.8 °F 32.9 °F 1.4 °F 18% 30.46 in 10.0 mi NNE 26.5 mph 33.4 mph N/A   Clear
6:35 PM 42.8 °F 33.1 °F 1.4 °F 18% 30.46 in 10.0 mi NNE 25.3 mph 35.7 mph N/A   Clear
6:55 PM 41.0 °F 30.9 °F 3.2 °F 21% 30.47 in 10.0 mi NNE 24.2 mph 33.4 mph N/A   Clear
7:15 PM 41.0 °F 30.5 °F 3.2 °F 21% 30.47 in 10.0 mi NNE 26.5 mph 32.2 mph N/A   Clear
7:35 PM 41.0 °F 30.0 °F 3.2 °F 21% 30.47 in 10.0 mi NNE 28.8 mph 36.8 mph N/A   Clear
7:55 PM 41.0 °F 30.7 °F 3.2 °F 21% 30.48 in 10.0 mi NNE 25.3 mph 31.1 mph N/A   Clear
8:15 PM 41.0 °F 31.1 °F 3.2 °F 21% 30.48 in 10.0 mi NNE 23.0 mph 31.1 mph N/A   Clear
8:35 PM 41.0 °F 31.6 °F 3.2 °F 21% 30.48 in 10.0 mi NNE 20.7 mph - N/A   Clear
8:55 PM 41.0 °F 31.9 °F 5.0 °F 23% 30.48 in 10.0 mi NNE 19.6 mph 27.6 mph N/A   Clear
9:15 PM 41.0 °F 31.6 °F 5.0 °F 23% 30.48 in 10.0 mi NNE 20.7 mph 26.5 mph N/A   Clear
9:35 PM 41.0 °F 31.1 °F 5.0 °F 23% 30.48 in 10.0 mi NNE 23.0 mph 32.2 mph N/A   Clear
9:55 PM 41.0 °F 30.9 °F 6.8 °F 24% 30.48 in 10.0 mi NNE 24.2 mph 28.8 mph N/A   Clear
10:15 PM 39.2 °F 29.8 °F 8.6 °F 28% 30.49 in 10.0 mi NNE 18.4 mph 25.3 mph N/A   Clear
10:35 PM 39.2 °F 29.6 °F 8.6 °F 28% 30.49 in 10.0 mi NNE 19.6 mph - N/A   Clear
10:55 PM 41.0 °F 31.9 °F 8.6 °F 26% 30.48 in 10.0 mi NNE 19.6 mph 33.4 mph N/A   Clear
11:15 PM 41.0 °F 31.1 °F 6.8 °F 24% 30.48 in 10.0 mi NNE 23.0 mph 28.8 mph N/A   Clear
11:35 PM 41.0 °F 30.0 °F 6.8 °F 24% 30.47 in 10.0 mi NNE 28.8 mph 33.4 mph N/A   Clear
11:55 PM 41.0 °F 30.2 °F 5.0 °F 23% 30.47 in 10.0 mi NNE 27.6 mph 38.0 mph N/A   Clear